Tracking 19280 objects as of 15-Nov-2018
HD Live streaming from Space Station
objects crossing your sky now

GALAXY 23 (TELSTAR 13)

Track GALAXY 23 (TELSTAR 13) now!
GALAXY 23 (TELSTAR 13) is classified as:


NORAD ID: 27854
Int'l Code: 2003-034A
Perigee: 35,781.5 km
Apogee: 35,806.1 km
Inclination: 0.0 °
Period: 1,436.1 minutes
Semi major axis: 42164 km
RCS: 36.5219 m2 (large)
Launch date: August 8, 2003
Source: United States (US)
Launch site: SEA LAUNCH (SEAL)

24 C-band, 2 Ka-band, 32 Ku-band; additional C-band payload owned and operated by Loral Skynet.
aabbcc
Your satellite tracking list
Your tracking list is empty




NASA's NSSDC Master Catalog

Two Line Element Set (TLE):
1 27854U 03034A   18318.56842237  .00000014  00000-0  00000+0 0  9998
2 27854   0.0173 284.2459 0002920 311.0209 262.0062  1.00271582 60754
Source of the keplerian elements: AFSPC